STARLINK-32702, 62432

Orbit data source: Space-Track

STARLINK-32702, 62432 is a payload satellite owned by SpaceX/Seattle (US) in LEO that was launched on Sun, 29 Dec 2024 UTC via an FALCON 9 launch vehicle from the Air Force Western Test Range (AFWTR). Payload-class satellites include a variety of spacecraft equipped with specific instruments for various scientific and technological missions. These include communications satellites like Starlink; space stations such as the ISS; scientific satellites like the Hubble; Earth observation satellites from companies like Planet Labs, Umbra, and HawkEye 360; GPS; miniature CubeSats for education and research; and military/defense satellites.

Loading next visibility...
Identifier
62432, 2024-251A
Orbit
LEO
Country
Flag of USUS
Related business
Manufacturer
SpaceX/Seattle
Mission
Operational Commercial Communications
Bus & Motor
STARLINK V2M, Unknown motor
Mass
730 kg wet, ~700 kg dry
Launch date (UTC)
2024-12-29 (1 year ago)
Launch vehicle
FALCON 9
Launch site
Air Force Western Test Range (AFWTR)
Object type
Payload
Rocket body
Debris
Shape & HBR
Box + 2 Pan, 17.7 m
Radar Cross Section
33.884 m², Large (>1 m²)

Expand to show TLE details & history
Last TLE update: 11 hours ago

TLE from 11 hours ago
0 STARLINK-32702
1 62432U 24251A   26171.39681183  .00012430  00000-0  43104-3 0  9992
2 62432  53.1576 215.3784 0000777  81.4155 278.6934 15.30204568 83713
Epoch: 2026-06-20T09:31Z
TLE epoch observation values (Epoch: 2026-06-20T09:31:24.542Z)
Latitude
0.00002°
Longitude
163.91413°
Altitude
476.02 km
Speed
7.629 km/s
True Right ascension
14h 21m 30s
True Declination
0° 00' 00"
Sunlit
Object was in full shadow at epoch
Visualization orbit readout
Latitude
Unknown
Longitude
Unknown
Altitude
Unknown
Speed
Unknown
Apparent Right ascension
Unknown
Apparent Declination
Unknown
Sunlit
N/A
Visualization observer readout
Local Sidereal Time
07:17:49
Azimuth
Unknown
Elevation
Unknown
Doppler factor
Unknown
Orbital elements
Apogee altitude
475.991 km
Perigee altitude
474.926 km
Semi-major axis
6,853.595 km
Eccentricity
0.00008
Inclination
53.1576°
RAAN
215.3784°
Arg. of periapsis
81.4155°
True anomaly
278.6846°
Mean anomaly
278.6934°
Eccentric anomaly
278.689°
Mean motion
3.8253 °/min
Orbital period
94.11 mins
BSTAR
0.00043104
Loading maneuver chart data...
Computing Atmospheric mass density...
Loading historical data...
Loading historical data...
Loading historical data...
Loading historical data...
Loading historical data...
Loading historical data...
Loading historical data...

Documentation

Showing up to 5 results
|